Date_and_time,latitude,longitude,wind_speed,RelWindDirFrom,WindDirFrom,air_pressure,air_temperature,relative_humidity,Temp,platform_speed_wrt_ground,air_pressure_at_mean_sea_level,platform_orientation
2019-09-27 23:40,50.6304583333333,-96.9807616666667,5.5,9.0,316,985.51,9.3,47,14.45,0.0,1012.35,79.8
2019-09-27 23:50,50.630485,-96.980755,5.5,7.9,314,985.73,9.1,48,14.44,0.0,1012.57,79.8
2019-09-28 00:00,50.6304766666667,-96.9807633333333,5.5,9.0,308,985.96,9.0,49,14.44,0.0,1012.81,360.0
2019-09-28 00:10,50.6304716666667,-96.980765,6.1,9.7,314,986.13,9.0,48,14.43,0.0,1012.99,360.0
2019-09-28 00:20,50.6304583333333,-96.9807483333333,4.7,6.6,306,986.34,8.8,50,14.44,0.0,1013.22,360.0
2019-09-28 00:30,50.63046,-96.9807583333333,4.5,7.4,307,986.45,8.7,51,14.43,0.0,1013.34,360.0
2019-09-28 00:40,50.63046,-96.980765,5.0,6.5,306,986.57,8.4,52,14.41,0.0,1013.49,360.0
2019-09-28 00:50,50.6304633333333,-96.98077,5.8,9.4,304,986.78,8.1,53,14.42,0.0,1013.72,360.0
2019-09-28 01:00,50.6304666666667,-96.980775,5.6,7.7,311,986.98,7.7,54,14.42,0.0,1013.95,3.2
2019-09-28 01:10,50.6304666666667,-96.9807766666667,5.2,7.6,318,987.11,7.5,56,14.41,0.0,1014.11,3.2
2019-09-28 01:20,50.6304683333333,-96.9807766666667,4.8,7.1,321,987.21,7.3,58,14.40,0.0,1014.22,3.2
2019-09-28 01:30,50.6304683333333,-96.9807766666667,4.3,6.1,314,987.37,7.1,57,14.40,0.0,1014.40,3.2
2019-09-28 01:40,50.6304666666667,-96.980775,5.3,6.9,309,987.61,6.8,58,14.41,0.0,1014.67,3.2
2019-09-28 01:50,50.63046,-96.9807733333333,5.3,7.4,303,987.87,6.6,60,14.41,0.0,1014.96,3.2
2019-09-28 02:00,50.6304616666667,-96.9807733333333,4.1,6.1,299,988.03,6.3,61,14.40,0.0,1015.13,216.6
2019-09-28 02:10,50.6304616666667,-96.9807716666667,3.6,5.1,282,988.11,6.0,63,14.40,0.0,1015.24,216.6
2019-09-28 02:20,50.63046,-96.9807716666667,4.0,6.0,289,988.19,5.7,64,14.40,0.0,1015.34,216.6
2019-09-28 02:30,50.6304583333333,-96.980775,3.7,5.4,279,988.35,5.5,66,14.39,0.0,1015.53,216.6
2019-09-28 02:40,50.6304616666667,-96.980775,4.5,6.1,273,988.53,5.2,67,14.40,0.0,1015.74,216.6
2019-09-28 02:50,50.6304616666667,-96.980775,5.0,6.9,279,988.65,4.9,69,14.39,0.0,1015.90,216.6
2019-09-28 03:00,50.6304616666667,-96.980775,4.9,6.6,282,988.80,4.7,69,14.37,0.0,1016.07,203.5
2019-09-28 03:10,50.6304566666667,-96.980795,5.0,7.3,295,988.92,4.8,69,14.37,0.0,1016.20,203.5
2019-09-28 03:20,50.6304883333333,-96.9807716666667,4.6,7.1,298,989.07,4.8,69,14.37,0.0,1016.36,203.5
2019-09-28 03:30,50.6304583333333,-96.9807783333333,4.4,5.8,291,989.16,4.7,70,14.36,0.0,1016.47,203.5
2019-09-28 03:40,50.6304566666667,-96.9807933333333,4.0,5.7,291,989.26,4.6,71,14.33,0.0,1016.60,203.5
2019-09-28 03:50,50.6304633333333,-96.9807933333333,4.8,6.6,289,989.40,4.4,72,14.32,0.0,1016.77,203.5
2019-09-28 04:00,50.6304666666667,-96.9807833333333,4.6,6.5,297,989.53,4.4,72,14.33,0.0,1016.91,270.0
2019-09-28 04:10,50.6304633333333,-96.98078,5.1,8.0,299,989.66,4.3,72,14.36,0.0,1017.06,270.0
2019-09-28 04:20,50.6304616666667,-96.98078,5.9,7.3,308,989.82,4.2,70,14.41,0.0,1017.24,270.0
2019-09-28 04:30,50.6304633333333,-96.9807783333333,5.3,6.8,309,989.95,4.2,71,14.40,0.0,1017.39,270.0
2019-09-28 04:40,50.6304483333333,-96.980765,5.4,8.8,310,990.06,4.0,73,14.37,0.0,1017.53,270.0
2019-09-28 04:50,50.630475,-96.9807633333333,6.7,9.8,316,990.13,3.8,73,14.36,0.0,1017.63,270.0
2019-09-28 05:00,50.6304733333333,-96.98078,5.3,7.0,311,990.36,3.7,73,14.34,0.0,1017.86,311.7
2019-09-28 05:10,50.6304716666667,-96.9807766666667,5.5,7.7,320,990.40,3.8,72,14.31,0.0,1017.89,311.7
2019-09-28 05:20,50.6304683333333,-96.9807733333333,5.5,8.0,313,990.48,3.8,71,14.32,0.0,1017.98,311.7
2019-09-28 05:30,50.6304583333333,-96.980765,6.2,8.8,310,990.64,3.6,72,14.30,0.0,1018.17,311.7
2019-09-28 05:40,50.63046,-96.98077,5.0,7.0,301,990.71,3.4,72,14.29,0.0,1018.25,311.7
2019-09-28 05:50,50.6304616666667,-96.98077,4.7,7.2,297,990.81,3.2,73,14.28,0.0,1018.37,311.7
2019-09-28 06:00,50.6304633333333,-96.9807683333333,5.4,8.4,304,990.84,3.1,72,14.27,0.0,1018.40,90.0
2019-09-28 06:10,50.630465,-96.9807683333333,4.4,6.5,300,990.89,2.9,74,14.27,0.0,1018.47,90.0
2019-09-28 06:20,50.6304633333333,-96.9807716666667,5.1,7.8,292,991.11,2.7,74,14.24,0.0,1018.71,90.0
2019-09-28 06:30,50.6304533333333,-96.9807666666667,3.9,6.4,278,991.35,2.5,76,14.23,0.0,1018.98,90.0
2019-09-28 06:40,50.630455,-96.98078,3.5,5.6,278,991.47,2.2,78,14.22,0.0,1019.13,90.0
2019-09-28 06:50,50.6304566666667,-96.9807816666667,3.8,5.9,267,991.67,1.9,78,14.19,0.0,1019.35,90.0
2019-09-28 07:00,50.630455,-96.9807716666667,4.0,5.3,238,991.90,1.7,80,14.18,0.0,1019.60,176.8
2019-09-28 07:10,50.630455,-96.98077,4.6,5.9,235,992.03,1.5,82,14.17,0.0,1019.74,176.8
2019-09-28 07:20,50.6304566666667,-96.9807716666667,4.9,6.2,243,992.11,1.1,83,14.16,0.0,1019.85,176.8
2019-09-28 07:30,50.63044,-96.9807466666667,5.0,6.5,245,992.33,0.9,84,14.16,0.0,1020.10,176.8
2019-09-28 07:40,50.630455,-96.980755,4.5,6.2,245,992.35,0.8,84,14.13,0.0,1020.13,176.8
2019-09-28 07:50,50.6304566666667,-96.9807566666667,3.9,5.8,250,992.38,0.8,84,14.12,0.0,1020.16,176.8
2019-09-28 08:00,50.63046,-96.9807583333333,3.8,6.0,262,992.45,0.9,84,14.10,0.0,1020.25,131.6
2019-09-28 08:10,50.6304733333333,-96.98076,3.8,5.4,279,992.52,1.3,83,14.10,0.0,1020.31,131.6
2019-09-28 08:20,50.6304583333333,-96.9807683333333,4.3,6.3,264,992.70,1.3,82,14.08,0.0,1020.50,131.6
2019-09-28 08:30,50.6304983333333,-96.9807933333333,5.0,8.8,234,992.91,1.1,84,14.06,0.0,1020.74,131.6
2019-09-28 08:40,50.6304516666667,-96.9807666666667,4.9,7.0,259,993.01,0.8,85,14.07,0.0,1020.87,131.6
2019-09-28 08:50,50.6304533333333,-96.9807616666667,5.1,7.0,249,993.09,0.6,86,14.08,0.0,1020.98,131.6
2019-09-28 09:00,50.6304416666667,-96.980775,4.7,6.9,262,993.12,0.6,85,14.10,0.0,1021.03,360.0
2019-09-28 09:10,50.6304466666667,-96.9807666666667,4.2,5.7,250,993.26,0.7,85,14.10,0.0,1021.18,360.0
2019-09-28 09:20,50.6304783333333,-96.9807966666667,4.1,6.3,261,993.34,0.7,86,14.08,0.0,1021.27,360.0
2019-09-28 09:30,50.63046,-96.9807833333333,3.7,5.4,263,993.38,1.1,84,14.05,0.0,1021.30,360.0
2019-09-28 09:40,50.630445,-96.9807683333333,4.2,5.9,244,993.60,1.1,84,14.04,0.0,1021.52,360.0
2019-09-28 09:50,50.6304866666667,-96.9808133333333,4.0,6.2,243,993.68,1.1,85,14.03,0.0,1021.60,360.0
2019-09-28 10:00,50.630455,-96.9807816666667,4.2,5.2,236,993.83,1.1,86,14.03,0.0,1021.74,270.0
2019-09-28 10:10,50.630455,-96.98078,4.0,5.7,243,993.91,1.0,86,14.03,0.0,1021.83,270.0
2019-09-28 10:20,50.6304333333333,-96.980755,4.1,6.1,246,994.01,1.1,84,14.02,0.0,1021.93,270.0
2019-09-28 10:30,50.6304633333333,-96.9807716666667,4.5,5.8,230,994.16,1.2,85,14.01,0.0,1022.10,270.0
2019-09-28 10:40,50.6304616666667,-96.9807716666667,4.2,6.1,228,994.35,1.4,87,13.99,0.0,1022.29,270.0
2019-09-28 10:50,50.6304633333333,-96.9807716666667,4.5,5.8,243,994.43,0.9,85,13.97,0.0,1022.40,270.0
2019-09-28 11:00,50.6304616666667,-96.98077,4.6,6.9,248,994.57,0.8,83,13.94,0.0,1022.55,347.4
2019-09-28 11:10,50.6304633333333,-96.9807716666667,4.6,6.8,252,994.70,0.8,82,13.92,0.0,1022.67,347.4
2019-09-28 11:20,50.6304533333333,-96.9807766666667,5.0,7.0,258,994.75,1.0,81,13.92,0.0,1022.71,347.4
2019-09-28 11:30,50.6304566666667,-96.9807733333333,5.1,7.4,262,994.90,1.2,79,13.89,0.0,1022.85,347.4
2019-09-28 11:40,50.630455,-96.9807683333333,5.0,6.9,262,994.95,1.2,78,13.88,0.0,1022.89,347.4
2019-09-28 11:50,50.6304566666667,-96.9807666666667,5.6,8.9,261,995.03,1.3,77,13.87,0.0,1022.98,347.4
2019-09-28 12:00,50.6304633333333,-96.98079,5.2,7.9,265,995.16,1.4,77,13.86,0.0,1023.10,360.0
2019-09-28 12:10,50.6304566666667,-96.9807833333333,5.0,7.6,268,995.32,1.4,76,13.86,0.0,1023.26,360.0
2019-09-28 12:20,50.6304583333333,-96.98078,4.7,8.3,262,995.49,1.3,76,13.85,0.0,1023.44,360.0
2019-09-28 12:30,50.63046,-96.9807766666667,5.0,7.3,258,995.60,1.2,76,13.83,0.0,1023.55,360.0
2019-09-28 12:40,50.6304616666667,-96.9807766666667,4.6,6.9,248,995.84,1.1,78,13.82,0.0,1023.83,360.0
2019-09-28 12:50,50.6304616666667,-96.9807766666667,4.9,6.5,245,995.99,0.9,79,13.81,0.0,1024.00,360.0
2019-09-28 13:00,50.630475,-96.980785,5.1,7.5,245,996.16,0.9,80,13.80,0.0,1024.17,360.0
2019-09-28 13:10,50.6304616666667,-96.9807783333333,4.9,6.9,249,996.37,1.0,79,13.80,0.0,1024.37,360.0
2019-09-28 13:20,50.6304666666667,-96.980765,4.9,7.1,255,996.48,1.3,77,13.80,0.0,1024.46,360.0
2019-09-28 13:30,50.63046,-96.9807633333333,5.3,8.1,265,996.59,2.0,74,13.77,0.0,1024.53,360.0
2019-09-28 13:40,50.6304616666667,-96.9807683333333,4.8,7.1,271,996.72,2.5,72,13.75,0.0,1024.64,360.0
2019-09-28 13:50,50.6304616666667,-96.98077,5.1,8.8,269,997.02,3.0,70,13.76,0.0,1024.91,360.0
2019-09-28 14:00,50.63046,-96.9807766666667,5.2,7.4,265,997.20,3.5,68,13.76,0.0,1025.07,192.6
2019-09-28 14:10,50.6304583333333,-96.980785,5.0,7.9,266,997.39,4.0,66,13.77,0.0,1025.24,192.6
2019-09-28 14:20,50.6304616666667,-96.9807733333333,4.6,7.2,255,997.61,4.3,66,13.76,0.0,1025.46,192.6
2019-09-28 14:30,50.6304583333333,-96.9807716666667,4.9,8.3,258,997.90,4.6,67,13.72,0.0,1025.75,192.6
2019-09-28 14:40,50.6304333333333,-96.9807733333333,6.6,11.3,270,998.10,5.0,63,13.69,0.0,1025.94,192.6
2019-09-28 14:50,50.6304516666667,-96.98077,7.5,11.5,274,998.28,5.4,61,13.66,0.0,1026.12,192.6
2019-09-28 15:00,50.6304583333333,-96.98078,7.7,12.1,279,998.47,5.7,59,13.65,0.0,1026.29,167.4
2019-09-28 15:10,50.6304583333333,-96.9807783333333,7.8,11.9,286,998.56,5.9,58,13.64,0.0,1026.35,167.4
2019-09-28 15:20,50.6304433333333,-96.98079,6.6,11.0,279,998.73,6.0,59,13.63,0.0,1026.49,167.4
2019-09-28 15:30,50.6304633333333,-96.9807583333333,5.9,10.5,291,998.86,6.0,58,13.62,0.0,1026.60,167.4
2019-09-28 15:40,50.6304516666667,-96.9807666666667,5.7,9.9,289,998.98,6.2,57,13.61,0.0,1026.69,167.4
2019-09-28 15:50,50.630455,-96.980775,5.4,9.1,283,999.10,6.4,56,13.60,0.0,1026.77,167.4
2019-09-28 16:00,50.630455,-96.9807716666667,6.1,10.0,288,999.02,6.7,52,13.61,0.0,1026.65,165.5
2019-09-28 16:10,50.6304533333333,-96.9807733333333,4.9,10.0,305,998.97,7.0,52,13.62,0.0,1026.57,165.5
2019-09-28 16:20,50.6304533333333,-96.9807733333333,5.2,9.5,309,998.87,7.2,50,13.63,0.0,1026.45,165.5
2019-09-28 16:30,50.6304483333333,-96.9808,5.6,10.4,297,998.84,7.2,48,13.64,0.0,1026.39,165.5
2019-09-28 16:40,50.6304533333333,-96.9807883333333,5.5,10.4,292,998.98,7.3,47,13.66,0.0,1026.50,165.5
2019-09-28 16:50,50.6304366666667,-96.9807883333333,6.0,9.7,278,998.99,7.3,47,13.67,0.0,1026.50,165.5
2019-09-28 17:00,50.6304433333333,-96.9807916666667,5.6,11.5,315,998.91,7.5,47,13.68,0.0,1026.40,211.1
2019-09-28 17:10,50.6304483333333,-96.980785,4.8,12.2,327,999.01,7.6,46,13.69,0.0,1026.49,211.1
2019-09-28 17:20,50.6304516666667,-96.9807816666667,6.9,9.6,323,999.13,7.5,43,13.69,0.0,1026.62,211.1
2019-09-28 17:30,50.6304533333333,-96.98078,3.7,8.0,317,999.39,7.5,44,13.71,0.0,1026.87,211.1
2019-09-28 17:40,50.630455,-96.98078,3.8,7.1,280,999.53,7.8,43,13.71,0.0,1026.99,211.1
2019-09-28 17:50,50.6304566666667,-96.98078,5.6,10.4,278,999.50,7.9,43,13.70,0.0,1026.95,211.1
2019-09-28 18:00,50.6304583333333,-96.98078,5.8,10.5,273,999.42,8.0,43,13.71,0.0,1026.84,0.0
2019-09-28 18:10,50.6304583333333,-96.98078,5.1,8.7,252,999.31,8.4,40,13.72,0.0,1026.71,0.0
2019-09-28 18:20,50.63045,-96.980785,7.0,12.1,234,999.07,8.3,40,13.75,0.0,1026.46,0.0
2019-09-28 18:30,50.6304583333333,-96.9807716666667,6.2,10.4,283,998.92,8.3,41,13.79,0.0,1026.30,0.0
2019-09-28 18:40,50.6304533333333,-96.98079,3.8,8.2,341,998.91,8.3,42,13.82,0.0,1026.30,0.0
2019-09-28 18:50,50.6304616666667,-96.980785,2.7,7.3,300,998.85,8.6,39,13.85,0.0,1026.21,0.0
2019-09-28 19:00,50.63046,-96.9807816666667,6.3,10.4,289,998.71,8.5,38,13.88,0.0,1026.06,305.3
2019-09-28 19:10,50.6304566666667,-96.98078,3.9,8.4,294,998.67,8.9,36,13.90,0.0,1026.00,305.3
2019-09-28 19:20,50.630455,-96.98078,3.5,7.1,311,998.66,9.3,37,13.91,0.0,1025.98,305.3
2019-09-28 19:30,50.630455,-96.98078,2.7,9.9,3,998.59,9.6,39,13.91,0.0,1025.88,305.3
2019-09-28 19:40,50.6304516666667,-96.9807716666667,6.6,15.7,15,998.56,9.4,44,13.89,0.0,1025.85,305.3
2019-09-28 19:50,50.6304583333333,-96.980775,9.5,12.4,18,998.55,9.1,46,14.01,0.0,1025.85,305.3
2019-09-28 20:00,50.6304616666667,-96.9807633333333,7.7,11.9,38,998.62,9.1,44,13.91,0.0,1025.90,27.7
2019-09-28 20:10,50.6304533333333,-96.980765,4.5,7.7,55,998.87,9.4,42,13.95,0.0,1026.14,27.7
2019-09-28 20:20,50.630455,-96.9807766666667,3.7,6.2,46,999.01,9.9,43,13.96,0.0,1026.27,27.7
2019-09-28 20:30,50.6304533333333,-96.980765,6.5,8.7,41,999.00,9.7,43,13.96,0.0,1026.26,27.7
2019-09-28 20:40,50.630455,-96.9807666666667,5.8,10.5,64,999.10,9.6,42,13.95,0.0,1026.36,27.7
2019-09-28 20:50,50.630455,-96.9807683333333,4.6,7.0,61,999.19,10.3,41,13.92,0.0,1026.43,27.7
2019-09-28 21:00,50.630455,-96.98077,6.1,8.8,33,999.25,9.5,45,13.91,0.0,1026.51,113.6
2019-09-28 21:10,50.6304566666667,-96.9807716666667,4.7,9.1,54,999.28,9.6,43,13.92,0.0,1026.51,113.6
2019-09-28 21:20,50.630465,-96.9807866666667,5.1,8.7,81,999.33,9.8,42,13.91,0.0,1026.54,113.6
2019-09-28 21:30,50.6304533333333,-96.980785,5.1,8.4,76,999.27,9.5,42,13.91,0.0,1026.50,113.6
2019-09-28 21:40,50.6304583333333,-96.9807816666667,4.8,6.9,80,999.23,9.7,42,13.90,0.0,1026.46,113.6
2019-09-28 21:50,50.63045,-96.98078,4.4,7.8,64,999.22,9.6,42,13.89,0.0,1026.46,113.6
2019-09-28 22:00,50.630455,-96.9807833333333,4.7,7.9,77,999.27,9.7,43,13.89,0.0,1026.50,360.0
2019-09-28 22:10,50.6304583333333,-96.98078,4.3,7.8,70,999.29,10.1,44,13.89,0.0,1026.47,360.0
2019-09-28 22:20,50.6304583333333,-96.9807766666667,5.7,8.5,87,999.52,10.2,44,13.89,0.0,1026.71,360.0
2019-09-28 22:30,50.6304566666667,-96.9807766666667,4.4,6.1,85,999.75,9.7,42,13.89,0.0,1026.97,360.0
2019-09-28 22:40,50.6304566666667,-96.9807733333333,5.3,8.7,72,999.63,9.5,44,13.89,0.0,1026.82,360.0
2019-09-28 22:50,50.6304566666667,-96.9807733333333,6.2,8.9,54,999.54,9.4,45,13.88,0.0,1026.78,360.0
2019-09-28 23:00,50.6304566666667,-96.980775,8.2,12.5,30,999.30,9.3,50,13.87,0.0,1026.53,360.0
2019-09-28 23:10,50.630435,-96.9807666666667,6.7,11.4,36,999.40,8.9,48,13.87,0.0,1026.64,360.0
2019-09-28 23:20,50.6304166666667,-96.980785,6.6,10.2,51,999.54,8.9,49,13.89,0.0,1026.80,360.0
2019-09-28 23:30,50.6304483333333,-96.9807783333333,6.8,9.9,65,999.62,8.9,49,13.89,0.0,1026.87,360.0
2019-09-28 23:40,50.630475,-96.9807866666667,8.8,12.0,64,999.57,9.0,51,13.90,0.0,1026.83,360.0
2019-09-28 23:50,50.6304383333333,-96.9807733333333,7.2,10.9,67,999.56,8.9,50,13.90,0.0,1026.82,360.0
